Погода в Шатове

Россия / Тульская область     54°01′15″N   36°56′13″E
темп.,
°C
ветер,
м/с
пор.,
м/с
влажн.,
%
обл.,
%
осадки,
мм/ч
давл.,
гПа
погр.,
м
18 апреля, вс
вс1800:00+6ююз3592100 3.0 1018315
03:00+6ююв2493100 5.2 1018328
06:00+5юв2395100 0.1 1018135
09:00+7в1179100 0.1 1018463
12:00+10св226368 0.0 10181134
15:00+10св567198 1.0 10191130
18:00+8св2592100 6.6 1019315
21:00+8св5987100 10.9 1019470
19 апреля, пн
пн1900:00+7всв5109296 0.4 1020429
03:00+5св4996100 0.4 1020307
06:00+6св5991100 0.1 1020564
09:00+7всв6992100 0.1 1020706
12:00+6всв6989100 0.1 1021975
15:00+4св6996100 0.3 1022687
18:00+3св61196100 0.4 1022628
21:00+3всв61197100 0.4 1021728
20 апреля, вт
вт2000:00+3всв61197100 0.4 1021584
03:00+3всв61197100 0.9 1020496
06:00+3всв51197100 0.8 1019440
09:00+4всв51097100 0.8 1018416
12:00+5всв61195100 0.1 1017577
15:00+6в81187100 0.1 1015704
18:00+5всв71393100 0.6 1012663
21:00+2всв81697100 6.5 1008725
21 апреля, ср
ср2100:00+2всв81699100 10.1 1002868
03:00+6вюв81799100 13.9 997581
06:00+8ююв81495100 1.4 996817
09:00+1юз71297100 1.7 1000549
12:00+2юз81393100 0.1 1004836
15:00+4зюз81387100 0.1 10071059
18:00+6юз6118485 0.1 10101180
21:00+4юз5119076 0.1 1012314
22 апреля, чт
чт2200:00+3ююз513905 0.0 1014307
03:00+3ююз5138959 0.0 1015331
06:00+3ююз4119274 0.0 1016261
09:00+7ююз5979100 0.3 1017490
12:00+10ююз7872100 0.2 10181150
15:00+11ююз6867100 0.4 10181279
18:00+11ю697695 0.9 1018691
21:00+7ююв31189100 0.9 1018240